Dewpoint
64 64 64 64 64 64 63 63 63 62 62 62 62 62 62 62 62 62 63 62 62 62 61 61 61 61 61 61 61 61 61 61 60 60 60 60 61 61 62 62 63 64 64 64 64 63 63 61 58 54 53 53 53 53 54 55 56 58 58 59 59 60 60 61 62 63 62 61 60 60 60 61 61 62 62 62 62 61 61 61 61 61 61 61 60 60 60 60 59 59 59 60 60 60 60 60 59 59 59 58 58 58 58
63 63 63 63 63 63 63 63 63 63 63 63 63 62 62 62 62 62 62 62 62 61 61 61 61 61 61 61 61 62 61 61 61 61 61 60 60 61 61 61 62 63 63 64 64 64 63 61 57 54 53 53 53 53 53 54 56 58 59 59 59 60 60 61 63 63 63 61 61 60 60 61 61 62 62 62 62 61 61 61 61 61 61 61 60 60 60 60 60 60 60 60 60 60 60 60 60 59 59 59 59 59 58
62 62 62 63 63 63 63 63 63 63 63 63 63 63 62 62 62 62 62 62 62 61 61 61 62 62 62 62 62 62 62 62 62 61 61 61 61 61 61 61 61 61 62 63 64 64 63 61 58 55 54 53 53 52 52 53 55 56 58 59 60 60 60 62 63 63 63 62 61 61 61 61 62 62 62 62 62 61 61 61 61 60 60 60 60 60 60 60 61 61 61 61 61 60 60 60 60 59 59 59 59 59 59
62 62 62 62 62 62 62 62 63 63 63 63 63 63 62 62 62 62 62 62 62 62 62 63 63 63 63 63 62 62 62 62 62 62 62 62 62 61 61 61 61 61 61 62 63 64 64 61 59 56 56 55 53 52 52 53 54 55 56 58 59 60 61 62 63 63 63 62 62 61 61 62 62 62 62 62 62 61 61 61 60 60 60 60 60 60 60 61 61 61 61 61 61 61 60 60 60 60 59 59 59 59 59
63 63 63 63 63 63 63 63 63 63 63 63 63 63 62 62 62 62 62 62 62 63 63 63 63 64 64 63 62 62 62 62 62 62 62 62 62 62 62 61 61 61 61 61 63 64 62 62 61 58 56 56 55 54 52 53 54 55 56 57 58 60 61 63 63 64 63 63 62 62 62 63 63 63 63 62 62 62 61 61 61 61 61 61 61 61 61 61 61 62 62 61 61 61 61 60 60 60 59 59 59 59 59
63 63 63 63 63 63 63 63 63 63 63 63 63 63 63 62 62 62 62 62 63 63 64 64 64 64 63 63 62 62 62 62 62 62 62 63 63 63 62 62 61 61 61 61 63 64 62 61 61 59 57 57 56 56 53 53 53 54 55 56 57 59 62 63 63 64 63 63 63 63 63 63 63 63 63 63 62 62 62 62 61 61 61 61 61 61 61 61 62 62 62 61 61 61 61 60 60 60 60 60 59 59 60
64 63 63 63 63 63 63 63 63 63 64 64 64 63 63 63 62 62 62 63 63 64 64 64 64 63 63 62 62 62 62 62 62 62 62 62 63 63 63 63 62 62 61 62 63 63 61 59 58 58 57 57 56 56 54 53 53 54 54 55 57 60 61 62 63 64 64 64 63 63 64 64 64 64 63 63 63 62 62 62 62 62 62 62 62 62 61 61 61 61 61 61 61 61 61 61 60 60 60 60 60 60 60
64 64 64 64 64 64 64 64 64 64 64 64 64 64 63 63 63 63 63 63 64 64 64 64 63 63 62 62 62 62 62 62 62 62 62 62 62 62 62 63 63 62 62 62 63 63 63 60 58 57 57 56 56 56 54 53 53 53 53 54 56 59 61 62 63 64 64 64 64 64 64 64 64 64 64 63 63 63 62 62 62 62 62 62 62 62 62 62 61 61 61 61 61 61 61 61 61 61 60 60 60 60 60
64 64 64 64 64 64 64 64 64 64 64 64 64 64 64 63 63 63 63 63 63 64 64 64 63 63 62 62 62 62 62 62 62 62 62 62 62 62 62 62 63 63 63 63 63 63 64 61 59 57 56 56 56 56 56 55 53 52 52 53 55 57 60 61 63 63 64 64 64 64 64 64 64 64 64 63 63 63 62 62 62 62 63 63 63 63 62 62 62 61 61 61 61 61 61 61 61 61 61 61 60 60 60
65 65 65 65 65 65 64 65 65 65 65 65 64 64 64 64 63 63 63 63 63 63 63 63 63 62 62 62 62 62 62 62 62 62 62 62 62 62 62 62 62 63 63 63 63 63 64 61 60 58 57 56 56 57 58 57 56 54 53 53 55 57 59 61 62 63 64 64 65 65 65 64 64 64 64 64 63 63 63 63 62 62 62 63 63 63 63 62 62 62 61 61 61 61 61 61 61 61 61 61 61 61 60
65 65 65 65 65 65 65 65 65 65 65 65 65 64 64 64 63 63 63 63 63 63 63 63 63 62 62 62 63 63 63 63 63 62 62 62 62 62 62 62 62 63 63 63 63 63 63 61 61 60 58 57 57 58 58 58 57 56 55 55 56 58 59 60 61 62 63 64 65 65 65 64 64 64 64 64 64 64 63 63 63 62 62 62 62 62 63 63 63 62 62 61 61 61 61 61 61 61 61 61 61 61 61
66 66 66 66 66 66 66 65 65 65 65 65 65 64 64 64 63 63 63 63 63 63 63 63 63 63 63 63 63 63 63 63 63 63 63 63 63 62 62 62 62 63 63 63 63 63 62 61 61 60 59 57 57 58 59 58 58 57 56 57 58 59 59 60 60 61 62 63 64 65 65 65 65 65 65 64 64 64 64 63 63 63 62 62 62 62 62 62 63 63 62 62 62 61 61 61 61 61 61 61 61 61 61
67 67 67 66 66 66 66 66 65 65 65 64 64 64 64 63 63 63 62 63 63 63 63 63 63 63 63 63 63 63 63 64 64 64 64 64 63 63 63 62 62 63 63 63 63 62 61 61 61 60 59 58 58 58 59 59 58 58 58 59 60 61 61 61 61 61 61 62 63 64 65 65 65 65 65 65 65 64 64 64 63 63 63 62 62 62 62 62 62 62 63 62 62 62 61 61 61 61 61 61 61 61 61
67 67 67 67 66 66 66 65 65 65 64 64 63 63 63 63 63 63 63 63 63 63 63 64 63 63 63 64 64 64 64 64 64 64 65 65 64 64 63 63 63 63 63 63 61 60 60 61 60 60 59 59 59 59 59 59 59 59 59 61 62 62 63 63 62 62 61 62 62 63 64 64 64 64 65 65 65 65 65 64 64 64 63 63 63 62 62 62 62 62 62 63 63 62 62 61 61 61 61 61 61 61 61
66 66 66 66 66 66 65 65 65 64 64 63 63 63 63 63 63 63 63 63 63 63 64 64 64 64 64 64 64 64 64 64 64 65 65 65 65 64 64 63 63 63 63 61 60 60 60 60 60 60 59 59 59 59 59 60 60 60 61 62 63 64 64 64 64 63 62 62 62 62 63 63 64 64 64 64 65 65 65 65 64 64 64 63 63 63 62 62 62 62 62 63 63 63 62 62 62 61 61 61 61 61 61
64 64 64 65 65 65 65 65 65 64 64 63 63 63 63 63 63 63 63 63 64 64 64 64 64 64 64 64 65 65 64 64 64 65 65 65 64 64 64 63 63 63 62 61 60 60 59 59 59 59 59 59 59 59 59 60 60 61 61 62 63 64 65 65 64 64 63 62 62 62 62 62 63 64 64 64 64 65 65 65 65 64 64 64 64 63 63 62 62 62 62 62 63 63 63 63 62 62 62 61 61 61 61
62 62 63 64 65 65 65 65 64 64 64 64 64 64 64 64 64 64 64 64 64 64 64 64 64 64 65 65 65 65 64 64 64 64 64 64 64 64 63 63 63 62 61 60 60 59 59 59 59 59 59 59 59 59 59 60 60 61 61 62 63 64 64 64 64 64 64 63 62 62 61 62 62 63 63 64 64 64 65 65 65 65 64 64 64 64 63 63 63 62 62 62 62 63 63 63 63 62 62 62 62 61 61
61 61 62 63 64 64 64 64 64 64 64 64 64 64 64 64 64 64 64 64 64 64 64 64 64 64 65 65 65 64 63 63 63 62 62 63 63 63 63 62 62 61 61 60 59 59 59 59 59 58 58 58 58 59 59 59 60 61 62 62 63 63 64 64 64 64 64 64 63 62 62 62 62 62 62 63 63 64 64 65 65 65 64 64 64 64 64 64 63 63 62 62 62 62 63 63 63 63 62 62 62 62 62
61 61 62 62 63 63 63 63 64 64 64 64 64 64 65 65 65 65 65 65 65 65 65 65 65 65 65 65 64 63 63 63 62 61 61 61 61 61 61 61 61 61 60 60 59 59 59 59 58 58 58 58 58 58 59 59 60 61 61 62 63 63 63 63 63 63 64 63 63 63 62 62 62 62 62 62 63 63 64 64 64 64 64 64 64 64 64 64 64 63 63 62 62 62 62 62 62 63 63 62 62 62 62
61 61 61 62 62 62 62 62 63 63 63 64 64 64 64 64 64 64 64 64 64 64 65 65 64 64 64 63 62 62 62 62 61 61 60 60 60 60 59 59 60 60 59 59 59 59 59 58 58 58 57 57 58 58 58 59 60 61 61 62 62 62 62 62 62 62 63 63 63 63 63 62 62 62 62 62 62 62 63 64 64 64 64 64 64 64 64 64 64 64 63 63 63 62 62 62 62 62 62 62 62 62 62
61 61 61 61 61 61 61 61 62 62 62 63 62 62 62 63 63 63 63 63 64 64 64 64 63 62 62 62 62 61 61 61 61 61 60 60 60 59 59 59 59 59 59 59 59 59 59 58 58 58 58 57 57 58 58 58 59 61 61 61 61 62 62 62 62 62 62 62 62 63 63 63 62 62 62 62 62 62 63 63 64 64 64 64 64 64 64 64 64 64 64 64 63 63 62 62 62 62 62 62 62 62 62
61 60 60 61 61 61 61 61 61 61 61 62 62 61 61 61 62 62 62 62 62 63 63 62 62 61 61 61 61 61 61 61 61 61 60 60 60 60 59 59 59 59 59 59 59 58 58 58 58 57 58 57 57 57 57 59 59 60 61 61 61 61 61 61 61 61 61 61 62 62 62 62 62 62 62 62 62 62 62 62 63 64 64 64 64 64 64 64 65 65 64 64 64 63 63 62 62 62 62 62 62 62 62
61 61 61 61 60 60 60 61 61 61 61 61 61 61 61 61 61 61 61 61 61 61 62 61 61 61 61 61 61 61 61 61 60 60 60 60 60 60 60 59 59 59 59 59 58 58 58 58 57 57 57 57 57 57 57 58 59 60 60 61 61 61 61 61 61 61 61 61 61 61 62 62 62 62 62 62 62 61 62 62 63 63 64 64 64 64 64 64 64 65 65 64 64 64 63 63 62 62 62 62 62 62 62
61 61 61 61 61 61 61 61 61 61 61 61 61 61 61 61 61 61 61 61 61 61 61 61 61 60 60 60 61 61 61 60 60 60 60 60 60 60 60 60 59 59 59 59 58 58 58 57 57 57 57 57 57 56 57 58 59 59 60 60 61 61 61 61 61 61 61 61 61 61 61 61 61 62 62 62 62 61 61 62 62 63 63 63 64 64 64 64 64 64 65 65 64 64 64 63 63 62 62 62 62 62 62
61 61 60 60 60 60 61 61 61 61 61 61 61 61 60 61 61 61 60 60 60 60 60 60 60 60 60 60 60 60 60 60 60 60 60 60 60 59 59 59 59 59 59 59 58 58 57 57 57 57 56 56 56 56 56 57 58 59 59 60 60 61 61 61 61 61 61 61 61 60 60 61 61 61 61 61 61 61 61 61 62 62 63 63 63 64 64 64 64 64 64 64 64 64 64 64 63 63 63 62 62 62 62
60 60 60 60 60 60 61 61 61 61 61 61 60 60 60 60 60 60 60 59 59 59 59 59 60 60 60 60 60 60 60 60 60 60 59 59 59 59 59 59 59 59 59 58 58 58 57 57 57 57 56 56 56 56 56 57 57 58 59 59 60 60 60 61 61 61 61 61 61 60 60 60 60 60 61 61 61 61 61 61 61 62 62 63 63 63 64 64 64 64 64 64 64 64 64 64 64 63 63 63 62 62 62
60 60 60 60 60 60 60 60 60 60 60 60 60 60 60 60 60 59 59 59 59 59 59 59 59 59 60 60 59 59 59 59 59 59 59 59 59 59 58 58 58 58 58 58 58 57 57 57 57 57 56 56 56 56 56 56 57 57 58 58 59 59 60 60 61 61 61 61 61 60 60 60 60 60 60 60 60 60 61 61 61 61 62 62 63 63 63 64 64 64 64 64 64 64 64 64 64 64 63 63 62 62 62
60 60 59 60 60 60 60 60 59 59 59 60 60 60 59 59 59 59 59 59 59 59 59 59 59 59 59 59 59 59 59 59 59 59 59 59 59 59 58 58 58 58 58 58 57 57 57 57 57 57 57 56 56 56 56 56 56 57 57 58 58 59 59 60 60 61 61 61 61 61 60 60 60 59 59 59 60 60 60 60 61 61 61 62 62 63 63 63 64 64 64 64 64 64 64 64 64 64 64 63 63 63 62
60 60 59 60 60 60 59 59 59 59 59 59 59 59 59 59 58 58 58 58 59 59 59 59 59 59 59 59 59 59 59 59 59 59 59 59 58 58 58 58 58 57 57 57 57 57 57 57 57 57 57 56 56 56 56 56 56 56 57 57 58 58 59 59 60 60 61 61 61 61 61 60 60 59 59 59 59 59 59 60 60 60 61 61 62 62 63 63 63 64 64 64 64 64 64 64 64 64 64 63 63 63 63
59 59 59 59 59 59 59 59 59 58 59 59 58 58 58 58 58 58 58 58 58 58 59 59 59 59 59 59 59 59 59 59 59 58 58 58 58 58 58 58 57 57 57 57 57 57 57 56 56 56 56 56 56 56 56 56 56 56 56 57 57 58 58 59 59 60 60 61 61 61 61 61 60 60 59 59 59 59 59 59 59 60 60 61 61 61 62 62 63 63 64 64 64 64 64 64 64 64 64 64 64 64 63
59 59 59 59 58 58 58 58 58 58 58 58 58 58 58 58 58 58 58 58 58 58 59 59 59 59 59 59 59 58 58 58 58 58 58 58 58 58 57 57 57 57 57 56 56 56 56 56 56 56 56 56 56 56 56 56 56 56 56 56 57 57 57 58 58 59 59 60 61 61 61 61 61 60 60 60 60 60 60 60 59 59 59 60 60 61 61 62 62 63 63 64 64 64 64 64 64 64 64 64 64 64 64
59 58 58 58 58 57 57 58 58 58 58 58 58 58 58 58 58 58 58 58 58 58 58 58 58 58 58 58 58 58 58 58 58 57 57 57 57 57 57 57 56 56 56 56 56 56 56 56 56 56 56 56 56 56 56 55 55 55 56 56 56 57 57 57 58 58 59 60 60 61 61 61 61 61 61 60 60 60 60 60 60 60 59 59 59 60 60 61 61 62 63 63 63 64 64 64 65 65 65 65 65 65 64
59 58 58 58 58 57 57 57 57 57 58 58 58 58 58 58 58 58 58 58 58 58 59 58 58 58 58 58 58 58 58 58 57 57 57 57 57 57 57 56 56 56 56 56 56 56 56 56 56 56 56 56 56 56 55 55 55 55 55 56 56 56 56 57 57 57 58 59 60 60 61 61 61 61 61 61 61 61 61 61 61 60 60 60 59 59 59 60 61 61 62 62 63 63 64 64 65 65 65 65 65 65 65
59 59 58 58 58 58 58 58 58 58 58 58 58 58 58 58 58 58 58 58 59 59 59 59 59 58 58 58 58 57 57 57 57 57 56 56 56 56 56 56 56 56 56 56 56 56 56 56 55 55 55 55 55 55 55 55 54 54 54 55 55 55 56 56 56 57 57 58 59 59 60 61 61 61 61 61 61 61 61 61 61 61 61 60 60 59 59 59 59 60 61 61 62 62 63 63 64 65 65 65 65 65 65
59 59 59 58 58 58 58 58 58 58 58 58 58 58 58 58 58 58 58 58 59 59 59 58 58 58 58 57 57 57 57 57 57 56 56 56 56 56 56 56 56 56 56 56 56 56 55 55 55 55 55 55 55 55 55 54 54 53 53 54 54 55 56 56 56 56 56 57 57 58 59 60 60 61 61 61 61 61 61 61 61 61 61 61 61 60 60 59 59 59 60 61 61 62 62 62 63 64 65 65 65 65 65
59 59 59 58 58 58 58 58 58 58 58 58 58 58 58 58 58 58 58 58 58 58 58 58 58 58 57 57 56 56 56 56 56 56 56 56 56 56 56 56 56 56 56 55 55 55 55 55 55 55 54 54 54 54 54 54 53 53 53 53 53 54 54 54 55 55 56 56 56 57 58 58 59 60 60 61 61 61 61 61 61 61 61 61 61 61 61 60 60 59 60 60 61 61 61 62 62 63 64 64 65 65 66
59 59 58 58 58 58 58 58 58 59 59 58 58 58 58 58 58 58 57 57 57 57 57 57 57 57 57 56 56 56 56 56 56 56 56 56 56 56 56 56 56 56 55 55 55 55 55 54 54 54 54 54 54 53 53 53 53 52 52 52 52 52 52 52 52 53 54 55 55 56 56 57 58 58 59 60 60 60 61 61 61 61 61 61 61 61 61 61 60 60 60 60 60 61 61 61 61 62 62 63 64 64 65
59 58 58 58 58 58 58 59 59 59 59 58 58 58 58 58 58 57 57 57 57 57 57 57 57 57 57 56 56 56 56 56 56 56 56 56 56 55 55 55 55 55 55 55 55 55 54 54 54 54 54 53 53 53 53 52 52 52 52 52 51 51 51 51 51 51 52 53 54 55 55 56 56 57 57 58 59 59 60 60 61 61 61 61 61 61 61 61 61 61 60 60 60 60 61 61 61 61 61 61 62 63 64
59 59 58 58 59 59 59 59 59 59 59 58 58 58 58 58 57 57 57 57 57 57 57 57 56 56 56 56 56 56 56 56 56 56 56 56 55 55 55 55 55 55 55 55 55 55 54 54 54 54 54 53 53 53 52 52 52 52 52 52 51 51 51 50 50 50 50 51 52 53 54 54 55 55 56 56 57 58 58 59 60 60 61 61 61 61 61 61 61 61 61 61 61 61 60 60 61 61 61 61 61 62 62
59 59 59 59 59 59 59 59 59 59 59 59 58 58 58 58 57 57 57 57 57 57 57 57 56 56 56 56 56 56 56 56 56 56 56 56 56 56 56 56 56 55 55 55 55 54 54 54 54 54 54 53 53 53 52 52 52 52 52 51 51 51 51 51 50 50 50 50 51 52 53 53 54 54 55 55 56 56 57 58 58 59 59 60 61 61 61 61 61 61 61 61 61 61 61 61 60 60 60 61 61 61 61
59 59 59 59 59 59 59 59 59 59 59 59 58 58 58 58 57 57 57 57 57 57 57 57 56 56 56 56 56 56 56 56 56 56 56 56 56 56 56 56 56 55 55 55 55 55 54 54 54 54 54 54 53 53 53 52 52 52 52 52 51 51 51 51 51 51 50 50 50 51 52 53 54 54 54 55 55 56 56 56 57 57 58 59 59 60 60 61 61 61 61 61 61 61 61 61 61 60 60 60 60 61 61
59 59 59 59 59 59 60 60 60 59 59 59 59 58 58 58 58 57 57 57 57 57 57 57 57 56 56 56 56 56 56 56 56 56 56 56 56 56 56 56 56 55 55 55 55 55 54 54 54 54 54 54 54 53 53 53 52 52 52 52 52 52 52 52 52 51 51 50 50 50 51 53 54 54 54 55 55 55 55 55 56 56 56 57 58 59 59 60 61 61 61 61 62 62 61 61 61 61 60 60 60 60 60
60 60 60 59 59 60 60 60 59 59 59 59 59 58 58 58 58 58 57 57 57 57 57 57 57 56 56 56 56 56 56 56 56 56 56 56 56 56 56 56 56 55 55 55 55 54 54 54 54 54 54 54 53 53 53 53 53 52 52 52 52 52 52 52 52 51 51 51 51 51 50 52 53 54 55 55 55 55 55 55 55 55 56 56 57 58 58 59 59 60 61 61 61 61 62 61 61 61 61 61 60 60 60
60 60 60 60 60 59 59 59 59 59 59 59 58 58 58 58 58 58 57 57 57 57 57 57 57 57 56 56 56 56 56 56 56 56 56 56 56 56 56 56 56 55 55 55 55 54 54 54 54 55 54 53 53 53 53 53 52 52 52 52 52 52 52 52 52 52 52 51 51 51 51 51 52 53 54 54 55 55 55 55 55 55 56 56 56 57 57 58 58 59 60 60 61 61 61 61 61 61 61 61 61 61 61
60 60 60 60 59 59 59 59 59 59 59 59 58 58 58 58 58 58 58 57 57 57 57 57 57 57 57 57 56 56 56 56 56 56 56 56 56 56 56 56 56 55 55 55 55 55 54 54 54 54 54 53 53 53 53 53 53 52 52 52 52 52 52 52 52 52 52 52 52 52 51 51 51 52 52 52 53 53 54 55 55 55 55 56 56 56 56 57 57 58 59 59 60 60 61 61 61 61 61 61 61 61 61
60 60 60 60 59 59 59 59 59 59 59 59 58 58 58 58 58 58 58 58 58 57 57 58 58 58 58 58 57 57 57 57 57 57 57 57 56 56 56 56 56 56 55 55 55 55 55 55 54 54 54 53 53 53 53 53 53 53 52 52 52 52 52 52 52 52 52 52 52 52 52 52 52 51 51 51 51 52 52 53 54 55 55 55 56 56 56 56 57 57 58 59 59 60 60 61 61 61 61 61 61 61 61
60 60 59 59 59 59 59 59 59 59 59 59 58 58 58 58 58 58 58 58 58 58 59 59 59 59 59 59 58 58 57 57 57 57 57 57 57 57 57 56 56 56 56 55 55 55 55 55 54 54 54 54 53 53 53 53 53 52 52 52 52 52 52 52 52 52 52 52 52 52 52 52 52 52 52 51 51 51 51 52 53 54 55 55 55 56 56 56 56 57 57 58 59 59 60 60 61 61 61 61 61 61 61
59 59 59 59 59 59 59 59 59 59 59 59 59 58 58 58 58 58 58 59 59 60 60 60 60 59 59 59 58 58 58 57 57 58 58 58 57 57 57 56 56 56 56 56 55 55 55 55 54 54 54 54 53 53 53 53 53 52 52 52 52 52 52 52 52 52 52 52 52 52 52 52 52 52 52 52 51 51 51 51 52 53 54 55 55 55 56 56 56 56 57 58 58 59 60 60 60 61 61 61 61 61 61
56 57 57 57 58 58 58 59 59 59 59 59 59 59 59 59 59 59 60 60 61 61 61 61 61 60 59 59 58 58 58 58 58 59 59 58 57 57 56 56 56 55 55 55 55 55 56 55 54 54 54 53 53 53 53 53 52 52 52 52 52 52 52 52 52 52 52 52 52 52 52 52 52 52 52 52 52 52 51 51 51 52 53 54 55 55 56 56 56 56 56 57 58 59 59 60 60 61 61 61 61 61 61
52 52 53 54 55 56 56 57 58 59 59 59 59 59 60 60 60 61 61 61 61 62 62 61 61 61 60 60 59 59 59 59 59 59 59 58 57 56 56 55 55 54 54 54 54 55 55 54 54 54 54 53 53 53 53 52 52 52 52 52 52 52 52 52 52 52 52 52 52 52 52 52 52 52 52 52 52 52 52 51 51 51 52 52 53 54 54 55 55 56 56 56 57 58 58 59 60 60 61 61 61 61 61
47 47 48 49 51 52 53 54 55 56 57 58 58 58 59 59 59 60 61 60 60 61 61 61 61 61 61 60 60 60 59 59 60 60 58 58 57 57 56 56 55 54 53 52 52 53 53 53 53 53 53 53 53 52 52 52 52 52 52 52 52 52 52 52 52 52 52 52 52 52 52 52 52 52 52 52 52 52 52 52 51 51 51 51 51 51 52 52 54 55 55 56 56 56 57 58 59 60 60 61 61 61 61
45 45 45 46 47 48 50 50 51 51 53 54 54 54 55 55 55 56 57 56 56 56 56 56 56 56 57 58 59 58 58 59 60 60 58 57 57 57 57 56 55 53 52 50 50 51 51 51 52 52 53 52 52 52 52 52 52 52 52 51 51 51 51 51 51 51 51 51 51 52 52 52 52 52 52 52 52 52 52 52 52 52 51 51 51 51 51 51 52 53 54 55 55 56 56 56 58 59 59 60 60 61 61
43 43 43 44 45 46 47 47 47 47 48 48 49 49 50 50 51 52 52 52 52 52 52 51 51 51 52 53 53 54 54 56 56 58 59 58 56 56 55 54 52 52 52 51 49 48 47 47 48 50 52 52 52 52 52 52 52 52 52 52 51 51 51 51 51 51 51 51 51 51 51 51 52 52 52 52 52 52 52 52 52 52 52 51 51 51 51 51 51 52 52 53 54 55 55 56 56 57 58 59 59 60 60
43 42 42 43 43 44 45 44 44 44 45 45 45 45 46 46 47 48 48 48 48 48 48 48 48 48 47 48 49 49 51 52 53 54 56 57 56 53 52 51 51 50 51 51 49 47 44 44 46 48 50 50 51 51 52 53 53 53 52 52 52 52 51 51 51 51 51 51 51 51 51 51 51 52 52 52 52 52 52 52 52 52 52 51 51 51 51 51 51 51 51 51 52 52 53 54 55 56 56 57 58 59 59
42 41 41 42 43 43 43 43 43 43 44 44 43 43 43 44 45 45 46 45 46 46 47 46 47 48 47 47 47 47 47 49 50 51 52 55 55 54 52 52 50 48 47 47 46 45 43 44 46 47 47 47 47 48 50 51 52 52 53 53 52 52 52 52 52 51 51 51 51 51 51 51 51 51 51 51 51 52 52 52 52 52 52 52 52 52 52 52 52 51 51 51 51 51 51 53 54 55 55 56 57 57 58
43 41 41 41 42 42 43 43 43 43 43 43 43 42 42 43 43 44 44 44 45 45 46 46 47 47 47 47 47 46 46 47 48 49 50 51 52 53 55 53 50 47 45 43 43 44 44 46 47 46 44 44 45 45 46 47 48 50 51 52 52 52 52 52 52 52 52 52 52 52 52 52 51 51 51 51 51 51 52 52 52 51 51 51 51 51 51 51 51 51 51 51 51 51 51 52 53 54 54 55 56 56 57
42 41 40 40 41 41 42 42 42 42 43 43 42 42 42 42 43 43 43 44 44 44 45 46 46 47 47 48 48 47 46 45 46 47 49 49 50 51 53 52 52 51 49 47 47 47 47 48 47 45 43 43 44 44 44 45 46 47 48 48 49 51 52 52 52 52 52 52 52 52 52 52 52 51 51 51 51 51 51 51 51 51 51 51 51 51 51 51 51 51 51 51 51 51 52 52 53 54 54 55 56 56 56
42 41 39 39 40 40 41 41 41 41 42 42 41 41 41 42 42 42 42 43 43 43 44 45 45 46 47 48 48 47 45 44 44 46 47 48 49 50 50 52 54 54 52 52 52 52 51 50 47 44 42 42 43 44 45 44 44 45 45 46 47 48 50 50 51 52 52 52 52 52 52 52 52 52 52 52 52 52 51 51 51 52 52 52 51 51 51 51 51 51 51 51 51 51 52 53 53 54 54 55 56 56 56
41 40 39 39 39 39 39 40 40 40 41 41 40 40 40 40 41 41 41 41 41 42 43 44 45 45 45 47 47 46 44 43 44 45 46 46 47 47 48 49 50 50 49 50 52 52 51 48 47 45 45 43 42 43 44 44 44 43 44 45 45 46 47 48 49 49 50 51 51 51 52 52 52 52 52 52 52 52 52 52 52 52 52 52 51 51 51 51 51 51 51 51 51 52 52 52 53 54 55 55 56 56 56
40 40 39 38 38 38 39 39 39 39 40 40 40 39 39 39 40 40 40 40 40 41 43 43 44 45 45 46 46 46 44 44 45 46 46 44 44 46 47 48 47 47 47 48 49 50 51 50 49 48 48 46 44 43 42 43 43 44 44 44 44 45 46 46 47 47 47 48 48 49 49 50 51 51 52 52 52 52 52 52 52 52 52 52 52 51 51 51 51 52 52 52 52 52 52 52 53 54 55 55 56 56 57
39 39 39 38 38 38 38 38 38 39 39 39 39 39 39 39 39 40 40 39 39 40 42 43 43 43 44 44 45 46 45 44 45 46 47 45 44 45 46 46 46 46 46 46 47 48 49 49 49 49 49 48 47 46 43 42 42 43 43 43 43 43 44 45 45 45 45 46 46 46 47 47 48 49 50 50 51 51 52 52 52 52 52 52 52 52 51 51 51 51 52 52 52 52 52 53 53 53 54 55 56 56 57